Weather History for Faribault, MN

Change the Weather History Date:

Tuesday, March 5, 2013

  Actual Average Record
Temperature  
Mean Temperature 24 °F -  
Max Temperature 28 °F 35 °F 63 °F (1983)
Min Temperature 19 °F 16 °F -18 °F (1960)
Degree Days  
Heating Degree Days 42    
Moisture  
Dew Point 23 °F    
Average Humidity 92    
Maximum Humidity 100    
Minimum Humidity 74    
Precipitation  
Precipitation 0.01 in - - ()
Sea Level Pressure  
Sea Level Pressure 30.06 in    
Wind  
Wind Speed 5 mph (North)    
Max Wind Speed 13 mph    
Max Gust Speed -    
Visibility 5 miles    
Events Snow    
Averages and records for this station are not official NWS values.
T = Trace of Precipitation, MM = Missing Value Source: NWS Daily Summary

Daily Weather History Graph

Daily Weather History Graph

Search for Another Location

Airport:

Trip Planner

Search our weather history database for the weather conditions in past years. The results will help you decide how hot, cold, wet, or windy it might be!

Date:

Astronomy

Mar. 05, 2013 Rise Set
Actual Time 6:43 AM CST 6:06 PM CST
Civil Twilight 6:14 AM CST 6:35 PM CST
Nautical Twilight 5:40 AM CST 7:09 PM CST
Astronomical Twilight 5:06 AM CST 7:43 PM CST
Moon 2:05 AM CST (3/5) 11:36 AM CST (3/5)
Length of Visible Light 12h 21m
Length of Day
11h 23m
Last Quarter, 40% of the Moon is Illuminated
Mar 5
Last Quarter
Mar 11
New
Mar 19
First Quarter
Mar 27
Full
Apr 2
Last Quarter

Hourly Weather History & Observations

Time (CST) Temp. Windchill Dew Point Humidity Pressure Visibility Wind Dir Wind Speed Gust Speed Precip Events Conditions
12:13 AM 24.8 °F 17.9 °F 24.8 °F 100% 29.96 in 1.5 mi East 5.8 mph - N/A Snow Light Snow
12:34 AM 24.8 °F 19.1 °F 23.0 °F 93% 29.96 in 4.0 mi East 4.6 mph - N/A Snow Light Snow
12:54 AM 24.8 °F 19.1 °F 23.0 °F 93% 29.96 in 5.0 mi East 4.6 mph - N/A Snow Light Snow
1:14 AM 24.8 °F 20.5 °F 23.0 °F 93% 29.97 in 2.0 mi East 3.5 mph - N/A Snow Light Snow
1:34 AM 24.8 °F - 23.0 °F 93% 29.96 in 1.5 mi Calm Calm - N/A Snow Light Snow
1:54 AM 24.8 °F - 23.0 °F 93% 29.96 in 2.0 mi Calm Calm - N/A Snow Light Snow
2:14 AM 24.8 °F 20.5 °F 24.8 °F 100% 29.96 in 1.0 mi East 3.5 mph - N/A   Overcast
2:34 AM 24.8 °F - 24.8 °F 100% 29.95 in 1.5 mi Calm Calm - N/A Snow Light Snow
2:54 AM 24.8 °F 20.5 °F 24.8 °F 100% 29.95 in 1.8 mi ENE 3.5 mph - N/A Snow Light Snow
3:14 AM 24.8 °F 20.5 °F 24.8 °F 100% 29.94 in 1.2 mi ENE 3.5 mph - N/A Snow Light Snow
3:34 AM 24.8 °F 20.5 °F 24.8 °F 100% 29.95 in 1.2 mi ENE 3.5 mph - N/A Snow Light Snow
3:54 AM 24.8 °F - 24.8 °F 100% 29.95 in 1.5 mi Calm Calm - N/A Snow Light Snow
4:14 AM 24.8 °F - 24.8 °F 100% 29.94 in 1.8 mi Calm Calm - N/A Snow Light Snow
4:34 AM 24.8 °F - 24.8 °F 100% 29.95 in 1.2 mi Calm Calm - N/A Snow Light Snow
4:54 AM 24.8 °F 19.1 °F 24.8 °F 100% 29.95 in 1.2 mi ENE 4.6 mph - N/A Snow Light Snow
5:14 AM 24.8 °F 17.9 °F 24.8 °F 100% 29.95 in 1.0 mi ENE 5.8 mph - N/A Snow Snow
5:34 AM 24.8 °F 19.1 °F 24.8 °F 100% 29.95 in 1.2 mi ENE 4.6 mph - N/A Snow Light Snow
5:54 AM 24.8 °F 17.9 °F 24.8 °F 100% 29.95 in 1.0 mi East 5.8 mph - N/A Snow Light Snow
6:14 AM 24.8 °F 17.9 °F 24.8 °F 100% 29.95 in 1.5 mi East 5.8 mph - N/A Snow Light Snow
7:14 AM 24.8 °F 19.1 °F 24.8 °F 100% 29.96 in 1.0 mi ENE 4.6 mph - N/A Snow Light Snow
7:34 AM 24.8 °F 17.9 °F 23.0 °F 93% 29.96 in 1.2 mi ENE 5.8 mph - N/A Snow Light Snow
7:54 AM 24.8 °F 19.1 °F 24.8 °F 100% 29.97 in 0.8 mi ENE 4.6 mph - N/A Snow Light Snow
8:14 AM 24.8 °F 20.5 °F 24.8 °F 100% 29.97 in 1.0 mi NE 3.5 mph - N/A Snow Light Snow
8:34 AM 24.8 °F 19.1 °F 23.0 °F 93% 29.97 in 1.2 mi NE 4.6 mph - N/A Snow Light Snow
8:54 AM 24.8 °F 19.1 °F 23.0 °F 93% 29.98 in 1.5 mi NE 4.6 mph - N/A Snow Light Snow
9:14 AM 24.8 °F 20.5 °F 23.0 °F 93% 29.98 in 1.8 mi NE 3.5 mph - N/A Snow Light Snow
9:34 AM 26.6 °F 20.0 °F 23.0 °F 86% 29.99 in 2.5 mi NE 5.8 mph - N/A Snow Light Snow
9:54 AM 26.6 °F 21.2 °F 24.8 °F 93% 29.99 in 1.2 mi NE 4.6 mph - N/A Snow Light Snow
10:14 AM 26.6 °F 19.1 °F 24.8 °F 93% 30.00 in 1.8 mi North 6.9 mph - N/A   Overcast
10:34 AM 26.6 °F 20.0 °F 24.8 °F 93% 30.01 in 1.5 mi North 5.8 mph - N/A   Overcast
10:54 AM 26.6 °F 17.5 °F 24.8 °F 93% 30.01 in 1.0 mi North 9.2 mph - N/A Snow Light Snow
11:14 AM 26.6 °F 18.2 °F 24.8 °F 93% 30.01 in 1.2 mi North 8.1 mph - N/A Snow Light Snow
11:34 AM 26.6 °F 17.5 °F 24.8 °F 93% 30.02 in 1.8 mi NNE 9.2 mph - N/A Snow Light Snow
11:54 AM 26.6 °F 17.5 °F 24.8 °F 93% 30.02 in 2.5 mi North 9.2 mph - N/A Snow Light Snow
12:14 PM 26.6 °F 17.5 °F 23.0 °F 86% 30.03 in 2.5 mi North 9.2 mph - N/A Snow Light Snow
12:34 PM 26.6 °F 15.7 °F 23.0 °F 86% 30.03 in 3.0 mi North 12.7 mph - N/A Snow Light Snow
12:54 PM 26.6 °F 15.7 °F 21.2 °F 80% 30.04 in 2.5 mi North 12.7 mph - N/A Snow Light Snow
1:14 PM 26.6 °F 16.8 °F 23.0 °F 86% 30.04 in 2.5 mi North 10.4 mph - N/A   Mist
1:34 PM 28.4 °F 19.7 °F 23.0 °F 80% 30.04 in 7.0 mi North 9.2 mph - N/A   Scattered Clouds
1:54 PM 28.4 °F 19.1 °F 21.2 °F 74% 30.04 in 7.0 mi North 10.4 mph - N/A   Mostly Cloudy
2:14 PM 28.4 °F 19.1 °F 23.0 °F 80% 30.05 in 10.0 mi North 10.4 mph - N/A   Mostly Cloudy
2:34 PM 28.4 °F 19.1 °F 21.2 °F 74% 30.06 in 10.0 mi North 10.4 mph - N/A   Overcast
3:14 PM 28.4 °F 19.7 °F 23.0 °F 80% 30.08 in 10.0 mi North 9.2 mph - N/A   Overcast
3:34 PM 28.4 °F 20.4 °F 23.0 °F 80% 30.09 in 10.0 mi NNW 8.1 mph - 0.01 in   Overcast
3:54 PM 26.6 °F 17.5 °F 23.0 °F 86% 30.10 in 10.0 mi NNW 9.2 mph - 0.01 in   Overcast
4:14 PM 26.6 °F 19.1 °F 23.0 °F 86% 30.11 in 7.0 mi North 6.9 mph - N/A   Overcast
4:34 PM 26.6 °F 17.5 °F 24.8 °F 93% 30.12 in 3.0 mi NNW 9.2 mph - N/A Snow Light Snow
4:53 PM 26.6 °F 16.8 °F 24.8 °F 93% 30.13 in 2.5 mi NNW 10.4 mph - N/A Snow Light Snow
5:14 PM 26.6 °F 17.5 °F 24.8 °F 93% 30.14 in 4.0 mi NNW 9.2 mph - N/A Snow Light Snow
5:33 PM 26.6 °F 17.5 °F 24.8 °F 93% 30.15 in 4.0 mi NNW 9.2 mph - N/A Snow Light Snow
5:54 PM 26.6 °F 16.8 °F 23.0 °F 86% 30.15 in 10.0 mi NNW 10.4 mph - N/A   Overcast
6:14 PM 26.6 °F 18.2 °F 21.2 °F 80% 30.17 in 10.0 mi NNW 8.1 mph - N/A Snow Light Snow
6:34 PM 24.8 °F 16.1 °F 21.2 °F 86% 30.18 in 10.0 mi NNW 8.1 mph - N/A   Overcast
6:54 PM 24.8 °F 16.9 °F 21.2 °F 86% 30.18 in 10.0 mi NNW 6.9 mph - N/A   Mostly Cloudy
7:14 PM 23.0 °F 17.0 °F 21.2 °F 93% 30.19 in 10.0 mi NNW 4.6 mph - N/A   Mostly Cloudy
7:34 PM 24.8 °F 17.9 °F 21.2 °F 86% 30.20 in 10.0 mi NNW 5.8 mph - N/A   Overcast
7:54 PM 24.8 °F 17.9 °F 21.2 °F 86% 30.20 in 10.0 mi WNW 5.8 mph - N/A   Overcast
8:14 PM 24.8 °F 17.9 °F 21.2 °F 86% 30.20 in 10.0 mi NW 5.8 mph - N/A   Overcast
8:33 PM 24.8 °F 16.9 °F 21.2 °F 86% 30.21 in 10.0 mi NW 6.9 mph - N/A   Overcast
8:54 PM 24.8 °F 16.1 °F 21.2 °F 86% 30.22 in 10.0 mi NW 8.1 mph - N/A   Overcast
9:14 PM 24.8 °F 16.1 °F 21.2 °F 86% 30.22 in 10.0 mi NW 8.1 mph - N/A   Overcast
9:34 PM 23.0 °F 14.7 °F 21.2 °F 93% 30.23 in 10.0 mi NW 6.9 mph - N/A   Overcast
9:54 PM 21.2 °F 10.9 °F 19.4 °F 93% 30.24 in 10.0 mi WNW 9.2 mph - N/A   Mostly Cloudy
10:14 PM 21.2 °F 12.6 °F 19.4 °F 93% 30.24 in 10.0 mi NNW 6.9 mph - N/A   Scattered Clouds
10:34 PM 19.4 °F 8.6 °F 19.4 °F 100% 30.24 in 10.0 mi NNW 9.2 mph - N/A   Scattered Clouds
10:54 PM 21.2 °F 13.6 °F 21.2 °F 100% 30.25 in 10.0 mi NW 5.8 mph - N/A   Overcast
11:14 PM 23.0 °F 15.8 °F 21.2 °F 93% 30.26 in 10.0 mi NW 5.8 mph - N/A   Overcast
11:33 PM 23.0 °F 17.0 °F 21.2 °F 93% 30.26 in 10.0 mi NW 4.6 mph - N/A   Overcast
11:54 PM 23.0 °F 14.7 °F 21.2 °F 93% 30.27 in 10.0 mi NNW 6.9 mph - N/A   Overcast